Location: Enborne
(51.3833°N, 1.3667°W)
Time: 23:17:46
(UTC+00:00)

SJ-6B - Pass Details

Date: 18 September 2020
Orbit: 511 x 580 km, 97.6° (Epoch: 30 October)

Event Time Altitude Azimuth Distance (km) Brightness Sun altitude
Exits shadow 19:22:17 11° 147° (SSE) 1,679 4.8 -11.6°
Maximum altitude 19:25:47 52° 71° (ENE) 650 2.9 -12.1°
Drops below altitude 10° 19:29:28 10° 355° (N) 1,760 5.7 -12.7°
Sets 19:31:37 0° 351° (N) 2,660 6.7 -13.0°
